Location: Hylvaty SDH
(49.9612°N, 16.4057°E)
Time: 20:03:16
(UTC+01:00)

Envisat - Visible Passes

Search period start: 09 December 2019 00:00
Search period end: 19 December 2019 00:00
Orbit: 764 x 766 km, 98.1° (Epoch: 09 December)

Date Brightness Start Highest point End Pass type
(mag) Time Alt. Az. Time Alt. Az. Time Alt. Az.
09 Dec 4.4 06:17:17 10° NNE 06:22:06 41° E 06:26:53 10° SSE visible
09 Dec 2.9 17:36:10 10° SSE 17:41:15 83° ENE 17:46:22 10° NNW visible
09 Dec 5.8 19:17:58 10° WSW 19:20:57 15° W 19:23:56 10° NW visible
10 Dec 5.7 05:41:11 10° NE 05:45:00 21° E 05:48:49 10° SE visible
10 Dec 3.3 16:59:50 10° SE 17:04:36 43° ENE 17:09:23 10° N visible
10 Dec 4.8 18:39:18 10° SSW 18:43:45 30° W 18:48:14 10° NNW visible
11 Dec 3.5 06:42:37 10° NNE 06:47:42 68° ESE 06:52:45 10° S visible
11 Dec 3.5 18:01:45 10° S 18:06:46 61° W 18:11:50 10° NNW visible
12 Dec 4.8 06:06:08 10° NNE 06:10:45 34° E 06:15:20 10° SSE visible
12 Dec 2.9 17:24:57 10° SSE 17:29:59 69° ENE 17:35:03 10° N visible
12 Dec 5.6 19:05:57 10° SW 19:09:31 19° W 19:13:06 10° NW visible
13 Dec 5.9 05:30:17 10° NE 05:33:36 17° E 05:36:53 10° SE visible
13 Dec 3.5 16:48:48 10° SE 16:53:23 35° ENE 16:58:00 10° N visible
13 Dec 4.5 18:27:42 10° SSW 18:32:23 37° W 18:37:07 10° NNW visible
14 Dec 3.9 06:31:23 10° NNE 06:36:24 55° E 06:41:22 10° S visible
14 Dec 3.2 17:50:24 10° S 17:55:28 75° WSW 18:00:35 10° NNW visible
14 Dec 6.2 19:33:48 10° WSW 19:35:23 11° W 19:36:58 10° WNW visible
15 Dec 5.2 05:55:02 10° NE 05:59:23 28° E 06:03:42 10° SSE visible
15 Dec 3.0 17:13:47 10° SSE 17:18:44 56° ENE 17:23:43 10° N visible
15 Dec 5.3 18:54:06 10° SW 18:58:06 23° W 19:02:09 10° NW visible
16 Dec 6.1 05:19:34 10° NE 05:22:09 14° E 05:24:45 10° ESE visible
16 Dec 3.1 06:56:48 10° NNE 07:01:56 89° ESE 07:07:01 10° SSW visible
16 Dec 3.8 16:37:50 10° ESE 16:42:11 30° ENE 16:46:34 10° N visible
16 Dec 4.1 18:16:11 10° S 18:21:03 46° W 18:25:57 10° NNW visible
17 Dec 4.3 06:20:10 10° NNE 06:25:04 45° E 06:29:55 10° S visible
17 Dec 2.9 17:39:05 10° SSE 17:44:11 89° ENE 17:49:18 10° NNW visible
17 Dec 5.9 19:21:15 10° WSW 19:23:56 14° W 19:26:38 10° NW visible
18 Dec 5.5 05:43:59 10° NE 05:47:59 23° E 05:51:57 10° SE visible
18 Dec 3.2 17:02:40 10° SE 17:07:30 46° ENE 17:12:21 10° N visible
18 Dec 5.0 18:42:22 10° SSW 18:46:43 28° W 18:51:06 10° NW visible
